Location: Newark
(47.3833°N, 8.2167°E)
Time: 20:17:26
(UTC+00:00)

N. Korean satellite - Visible Passes

Search period start: 21 September 2020 00:00
Search period end: 01 October 2020 00:00
Orbit: 455 x 503 km, 97.2° (Epoch: 21 September)

Date Brightness Start Highest point End Pass type
(mag) Time Alt. Az. Time Alt. Az. Time Alt. Az.
21 Sep 10.0 03:58:42 10° ENE 04:00:31 13° E 04:02:20 10° ESE visible
23 Sep 8.4 04:38:42 10° NNE 04:42:09 37° E 04:45:32 10° SSE visible
24 Sep 9.7 04:13:17 10° NE 04:15:59 19° E 04:18:38 10° SE visible
27 Sep 9.0 04:28:12 10° NE 04:31:24 28° E 04:34:31 10° SSE visible
28 Sep 9.9 04:03:04 10° NE 04:05:10 15° E 04:07:14 10° SE visible
30 Sep 8.1 04:43:16 10° NNE 04:46:44 42° E 04:50:07 10° S visible
